RH
86 86 87 86 86 86 86 87 88 88 88 89 90 91 91 90 89 86 84 81 76 72 68 65 62 60 58 57 57 57 58 60 61 62 62 63 64 65 66 65 64 62 60 58 55 53 51 48 45 43 40 37 35 32 30 28 25 23 21 19 17 14 13 13 14 15 13 10 10 9 8 8 7 6 6 6 5 5 5 5 5 5 5 5 5
85 85 85 85 86 86 87 88 88 89 89 89 89 89 87 83 79 76 74 71 67 64 62 59 57 56 56 56 56 57 58 60 62 64 66 67 67 66 65 63 61 58 56 53 50 47 44 41 38 34 32 30 28 25 22 20 18 15 12 11 9 7 7 7 6 7 7 6 5 5 5 4 4 4 4 4 4 4 4 4 4 4 4 4 4
83 84 84 85 86 86 87 86 87 87 86 85 83 81 78 74 71 69 68 65 62 60 57 57 57 56 57 58 59 60 63 66 68 69 69 68 66 64 61 58 56 53 50 46 43 39 35 32 29 26 24 21 19 17 14 12 10 8 6 6 5 5 5 4 4 4 4 4 4 4 4 4 4 4 4 4 4 4 4 4 4 4 4 4 4
85 86 85 86 86 85 84 83 83 82 80 77 74 72 71 68 67 65 63 61 59 58 58 58 59 60 61 63 65 68 70 71 71 69 67 65 62 58 55 51 48 45 41 37 33 29 26 23 21 18 15 12 10 9 7 7 6 5 5 4 4 4 4 4 5 4 4 4 4 4 5 4 4 5 5 4 5 5 4 5 5 5 5 5 5
86 85 84 84 82 81 80 79 78 76 74 72 70 69 69 67 65 63 61 60 60 60 61 62 64 66 69 71 72 73 72 71 68 66 63 59 54 50 46 42 40 36 32 28 23 20 17 14 12 10 8 7 5 5 5 5 5 4 5 5 5 5 5 5 5 5 5 5 5 5 5 5 6 5 6 5 5 6 6 6 6 6 6 6 6
83 83 82 81 80 79 78 76 74 73 72 72 71 70 69 67 65 63 62 63 63 65 67 69 72 75 76 76 75 72 70 67 64 60 56 50 45 40 36 34 31 27 22 18 15 12 10 8 7 6 5 5 4 5 4 5 5 5 5 5 6 6 6 6 6 6 7 6 6 7 6 7 7 6 7 7 6 7 6 6 7 7 8 7 7
83 84 83 82 81 79 77 76 75 74 74 74 73 71 69 68 67 66 66 68 70 74 77 80 81 80 78 76 72 69 65 62 58 52 46 40 34 30 27 24 22 17 13 10 8 7 6 5 5 4 5 5 5 5 5 6 6 6 6 6 7 7 7 7 7 7 8 8 8 8 8 8 8 8 9 9 9 9 8 8 8 8 9 9 9
86 87 86 85 83 81 80 80 79 79 78 77 75 74 73 72 72 73 75 79 82 85 85 84 82 79 76 71 67 63 59 54 49 43 36 29 23 20 18 16 13 10 7 6 5 5 5 5 5 5 5 5 6 6 6 6 7 7 8 8 8 8 8 8 9 9 9 10 10 10 10 10 10 10 10 10 10 10 11 10 9 9 10 10 11
90 90 89 88 87 85 85 84 84 83 82 81 80 80 80 81 82 84 87 88 88 87 85 82 78 74 69 64 59 55 51 46 41 34 26 19 14 12 11 9 7 6 6 5 5 5 5 5 5 5 6 6 7 7 7 7 8 8 9 9 9 9 9 10 10 11 11 11 11 11 11 11 11 11 11 11 11 10 11 11 10 10 10 11 12
93 94 94 93 92 91 90 89 89 88 87 86 87 87 88 90 91 91 90 88 86 83 80 77 71 66 60 55 50 45 40 36 32 25 16 10 8 8 7 6 5 5 5 6 6 6 6 6 7 6 7 7 7 8 8 8 9 10 10 11 11 10 10 11 12 12 12 12 12 12 12 12 12 12 12 12 12 12 12 12 11 12 12 12 14
97 98 98 98 97 97 97 95 94 93 93 93 93 94 95 95 93 91 88 85 82 79 74 69 63 57 52 45 38 32 27 23 20 15 9 6 6 6 5 5 6 6 6 7 7 7 7 7 8 7 8 8 9 9 10 10 11 11 12 12 12 12 12 12 13 13 13 13 13 14 14 13 14 15 14 14 14 14 14 13 13 13 14 15 15
100 101 101 101 100 101 101 100 99 98 97 98 98 97 95 93 91 88 84 80 76 72 66 60 54 47 40 32 24 19 15 11 10 8 6 6 6 6 6 6 6 7 8 8 8 9 9 8 8 8 9 9 10 11 11 11 12 13 14 14 14 14 14 14 14 14 14 14 15 17 17 16 16 17 17 16 16 16 16 16 16 16 17 17 17
101 101 101 101 100 100 102 102 101 100 100 100 98 95 92 91 89 84 79 74 69 63 57 49 41 32 25 18 13 10 8 6 6 6 5 6 7 7 7 7 8 8 8 9 9 9 10 10 9 9 10 11 11 12 12 13 14 15 16 16 16 17 17 17 18 17 17 17 17 19 20 18 18 19 20 20 19 18 18 18 18 19 19 18 18
101 101 100 100 100 100 100 101 102 101 100 97 95 93 92 90 85 78 72 67 60 52 43 34 26 18 13 10 7 6 6 6 6 6 6 7 8 8 8 8 9 9 9 10 10 10 11 12 11 11 12 12 13 14 14 16 17 18 18 18 19 20 20 21 22 22 21 21 21 21 23 23 22 22 22 23 21 20 20 19 20 21 20 20 21
100 100 100 100 100 100 101 102 102 100 97 95 94 93 89 83 77 70 63 56 46 35 26 19 13 9 7 7 6 6 7 7 7 8 8 9 9 9 9 10 10 10 10 11 11 12 13 13 13 14 14 15 16 16 16 17 18 19 20 20 21 22 22 23 24 24 25 25 24 25 25 26 25 24 24 24 23 22 22 23 24 25 23 24 26
100 101 101 100 100 101 102 101 99 96 95 94 92 87 81 75 69 59 48 38 28 19 13 10 8 7 6 7 7 7 8 8 9 9 10 11 11 11 10 11 11 11 12 12 12 13 14 15 16 16 17 17 18 17 17 18 19 20 21 21 23 24 25 25 25 26 27 27 27 27 28 29 29 29 30 29 28 27 27 29 32 32 30 30 31
101 101 100 100 101 102 100 98 96 95 94 90 85 79 74 65 53 40 28 19 14 10 8 7 7 7 7 8 8 9 9 10 10 11 11 12 13 12 12 12 12 13 13 14 14 15 16 18 19 19 19 19 19 19 19 20 22 23 23 23 25 26 27 28 29 30 30 31 31 32 33 34 35 37 38 38 38 37 35 36 39 39 38 36 34
100 101 101 101 101 100 98 97 97 93 88 83 78 70 59 45 31 21 14 10 8 7 7 7 7 8 8 9 10 10 11 11 12 12 12 14 14 14 13 13 14 15 15 16 17 18 19 20 21 21 21 21 21 22 23 23 25 26 26 26 27 28 29 30 31 33 34 35 36 37 37 37 37 39 40 41 42 42 41 41 42 41 40 39 38
99 100 101 101 101 100 99 96 91 86 81 75 64 50 35 23 15 11 8 7 7 7 7 8 8 9 10 10 11 12 12 12 13 13 13 14 16 16 16 16 17 17 18 19 19 19 20 22 22 22 23 24 26 27 27 27 28 29 29 28 29 30 31 32 33 34 36 38 38 38 39 39 39 39 40 41 43 44 45 44 43 43 42 42 43
97 99 100 102 101 98 94 88 83 78 69 56 40 26 17 12 9 8 7 7 8 8 9 9 10 10 11 12 12 13 14 14 14 14 14 15 17 19 19 19 20 21 21 21 21 22 22 23 24 25 27 28 30 31 31 30 30 30 30 29 30 32 33 34 35 35 35 36 37 38 39 40 41 41 41 44 46 47 48 49 48 49 48 46 48
98 100 101 99 95 89 85 81 73 62 46 31 20 14 10 8 7 8 8 9 9 10 10 11 12 12 13 13 14 14 15 15 16 16 16 17 19 21 23 23 23 23 23 23 24 24 25 26 27 29 31 32 34 34 33 32 32 31 31 32 33 34 35 36 36 36 35 36 38 41 42 42 43 44 45 47 49 50 52 53 54 55 55 53 53
99 97 94 90 86 83 78 67 52 37 24 16 11 9 7 8 8 9 9 10 11 11 12 12 13 14 14 15 15 16 16 17 17 18 19 20 21 22 24 24 24 25 26 26 27 28 29 31 33 34 35 35 35 34 33 33 33 33 34 35 35 36 37 37 37 37 38 39 41 44 45 45 45 46 48 50 52 53 54 56 58 59 60 61 61
93 89 87 85 81 72 58 42 28 19 13 9 8 8 8 9 9 10 11 12 12 13 14 14 14 15 16 16 17 18 18 19 20 21 23 24 24 23 24 26 27 28 29 30 31 32 33 35 36 36 35 34 33 32 32 33 34 34 35 37 38 39 39 40 39 40 41 42 44 47 48 46 46 48 50 52 52 52 53 56 59 61 62 65 68
86 85 84 77 63 46 31 21 15 11 8 8 8 9 9 10 10 12 12 13 14 14 15 16 16 16 17 17 18 19 19 21 23 24 25 25 25 25 26 27 28 30 31 32 33 34 34 35 35 35 33 33 32 32 32 31 32 34 35 37 40 41 42 42 42 42 43 44 46 49 50 49 48 49 50 50 49 49 51 56 60 62 63 65 70
84 79 68 51 34 23 16 12 9 8 8 9 9 9 10 11 12 13 13 14 15 16 16 17 18 18 18 18 19 20 22 23 25 26 26 25 26 27 28 29 30 31 32 33 33 33 34 34 34 33 32 32 32 32 31 31 31 33 36 39 42 43 43 43 44 44 45 47 48 50 51 51 51 51 50 50 51 50 52 57 62 65 64 65 71
70 54 38 25 18 14 10 8 8 8 9 9 10 11 12 13 13 14 15 16 16 17 18 18 18 19 19 20 21 22 24 26 26 27 27 27 28 30 30 31 32 32 33 34 34 34 34 33 33 32 32 32 32 32 33 33 34 35 38 40 43 43 43 44 45 46 47 49 51 52 53 53 54 54 54 55 56 56 55 57 60 63 64 64 68
40 28 20 15 12 9 8 8 9 10 10 11 12 13 13 14 15 15 16 17 17 18 19 19 20 20 21 21 22 24 26 28 28 28 28 29 31 32 33 33 34 34 35 36 35 34 34 33 33 32 32 32 32 32 32 34 35 38 40 42 44 45 45 46 47 48 49 51 54 54 55 56 56 56 58 60 61 60 60 59 59 60 62 63 65
22 17 14 10 8 8 9 10 10 10 12 12 13 13 14 15 16 16 17 18 19 19 20 20 21 22 22 23 25 26 27 29 30 30 31 32 33 34 34 35 36 37 37 37 36 35 34 34 33 33 33 33 32 31 31 33 35 38 42 45 47 48 49 49 50 51 52 55 57 58 58 59 59 59 61 63 63 62 61 60 60 61 63 65 68
16 12 9 8 9 10 10 10 11 12 12 13 13 15 15 16 17 18 18 19 20 21 21 22 23 23 25 27 28 29 29 30 32 33 34 35 36 38 38 39 40 40 39 38 37 36 35 34 34 33 33 32 31 31 31 34 37 40 44 48 51 52 53 53 54 55 57 59 61 61 61 61 61 61 62 63 64 63 61 60 61 64 67 70 74
10 9 9 9 10 10 11 12 12 12 13 14 15 16 17 18 18 19 20 21 22 22 23 24 25 27 28 29 31 33 33 33 34 36 37 39 40 41 42 43 42 41 40 39 37 36 35 35 34 33 32 31 30 30 32 34 38 42 46 51 54 55 56 56 56 58 61 63 64 63 62 62 62 62 61 61 62 64 64 65 67 70 72 74 76
9 10 10 11 11 11 12 13 13 14 15 16 17 17 19 20 20 21 22 23 24 25 26 27 28 30 31 32 32 34 35 36 38 40 42 43 44 45 45 45 43 42 41 40 38 37 36 35 35 33 32 31 30 30 31 33 36 40 46 53 57 58 59 59 59 60 63 66 66 66 65 64 63 62 60 59 61 65 68 71 73 74 76 77 78
10 10 11 12 12 12 13 14 15 16 17 18 19 20 20 21 22 23 24 25 26 28 29 31 32 34 35 36 37 39 40 42 43 45 46 47 47 47 47 46 45 44 43 41 40 38 37 36 35 34 33 33 32 31 31 32 34 38 43 51 59 62 62 61 62 63 65 67 67 67 68 66 63 62 62 61 62 67 71 73 75 74 75 79 82
11 11 12 13 13 14 15 16 17 18 18 19 20 21 22 24 25 26 27 28 30 31 32 34 36 37 38 39 41 43 46 46 47 48 48 49 49 49 49 48 46 45 43 42 41 39 38 37 36 35 36 36 35 34 33 33 34 38 42 48 57 64 65 64 64 66 68 69 69 70 70 67 63 63 67 68 68 70 73 74 75 76 76 80 84
12 13 13 14 15 16 17 18 19 19 20 21 22 23 24 26 27 28 30 31 32 34 35 37 39 41 42 43 44 46 48 48 47 46 45 44 44 44 44 44 43 41 40 40 39 38 37 37 37 37 38 39 38 37 37 36 36 39 42 48 55 64 67 67 67 69 71 72 73 73 72 69 65 66 70 73 74 75 76 77 78 78 78 81 84
13 14 15 16 17 18 19 20 20 21 22 23 24 25 27 28 29 31 33 33 35 36 36 36 38 39 40 40 41 42 42 40 39 37 35 34 34 33 34 35 35 35 34 34 34 35 35 36 37 38 40 41 41 39 39 39 39 40 43 48 56 65 69 69 69 71 73 74 76 76 75 73 70 69 72 76 77 77 78 80 81 81 80 82 84
14 15 16 18 19 20 21 21 23 24 25 26 27 28 30 32 33 35 36 37 39 39 37 35 34 32 32 33 34 35 35 34 35 35 34 34 34 32 31 30 30 31 31 30 31 32 33 34 36 39 42 44 44 43 42 42 43 44 46 50 58 66 69 70 70 72 75 77 79 79 78 76 73 73 76 81 81 80 79 80 82 84 84 85 87
16 17 18 19 21 22 23 24 25 27 28 29 31 32 33 35 36 37 38 38 37 37 36 35 34 33 34 34 35 37 38 40 41 41 42 43 43 43 41 37 32 30 31 30 30 31 33 35 37 41 46 49 49 48 48 47 47 49 51 55 61 67 70 71 71 72 76 79 81 81 80 79 78 77 80 84 85 84 84 83 83 86 88 89 90
17 18 20 21 22 24 25 27 29 30 31 33 34 34 36 36 36 36 35 35 35 36 37 38 37 37 36 34 32 32 34 37 38 39 41 43 46 49 51 50 44 36 32 31 31 31 34 39 43 46 52 56 55 55 54 53 54 56 58 60 66 71 73 72 73 74 78 82 84 84 83 83 83 84 85 86 86 86 87 86 85 86 88 89 90
19 21 22 23 24 27 28 30 31 32 33 35 35 35 35 34 34 35 36 37 37 35 34 32 30 27 25 24 23 22 24 27 29 30 32 36 41 46 53 57 57 50 41 36 34 34 37 43 50 55 60 63 63 61 60 59 60 62 63 65 70 75 77 75 75 77 81 86 89 89 87 86 87 89 90 90 89 87 88 89 88 86 84 85 89
22 23 24 25 28 29 30 32 33 34 34 34 33 33 34 35 35 35 34 30 27 24 22 21 21 19 19 20 20 20 22 23 24 25 26 29 34 40 48 57 62 61 54 47 43 42 43 49 56 63 68 70 70 68 66 65 65 67 69 70 73 78 80 78 76 78 84 89 92 93 91 90 90 91 92 93 92 90 87 87 88 87 86 86 88
24 26 27 28 30 30 32 33 34 34 33 32 33 34 35 34 30 26 22 20 19 19 19 21 21 21 22 22 22 22 23 24 25 26 26 27 29 33 41 50 59 65 64 60 56 53 52 55 61 68 74 77 77 75 73 71 71 72 73 74 77 81 83 81 79 80 85 91 95 96 95 93 91 91 93 94 94 93 91 89 87 88 89 89 89
26 28 29 30 31 32 33 33 32 32 33 34 35 33 29 24 20 18 19 20 20 21 22 23 23 23 24 23 23 23 24 25 26 26 27 27 28 29 33 40 50 60 68 70 68 64 61 61 65 71 78 82 82 81 79 77 75 75 76 77 80 84 85 84 82 83 86 92 97 98 97 96 94 91 91 93 94 95 95 93 91 90 89 90 91
28 29 30 31 33 33 32 31 32 34 35 33 28 23 19 18 19 20 21 22 22 22 23 24 25 25 25 25 25 25 25 25 26 26 27 28 29 29 30 33 39 50 63 75 78 75 70 67 68 72 79 86 88 86 84 82 79 77 77 78 81 85 87 86 84 84 86 91 97 100 100 99 97 93 91 90 92 94 95 94 93 91 89 88 89
30 31 32 33 33 32 32 34 36 34 29 24 20 18 19 21 22 22 22 23 23 23 23 24 24 25 26 26 26 26 26 26 26 26 27 28 29 30 31 32 34 40 54 71 82 83 78 74 72 74 80 89 92 91 90 87 83 79 78 77 79 84 88 87 86 85 85 88 94 99 101 101 100 96 93 90 89 90 92 93 91 88 86 85 86
32 33 34 32 32 33 35 36 32 25 20 19 20 21 22 22 22 23 23 24 23 24 24 24 24 25 25 26 27 27 27 26 26 27 28 29 30 31 31 32 33 36 44 60 77 86 85 81 77 76 81 89 94 95 94 92 89 84 81 78 78 82 86 87 87 86 85 85 89 94 97 99 100 98 95 92 88 85 86 87 87 84 82 82 83
34 34 32 32 35 37 35 29 22 19 20 22 23 23 23 23 23 24 24 24 25 25 25 25 25 25 25 26 27 27 27 27 27 27 28 29 30 31 32 33 34 35 37 47 64 80 88 88 84 80 81 86 92 96 97 96 94 91 87 82 79 81 84 86 86 87 86 84 85 88 92 94 96 96 94 92 88 84 82 83 83 82 80 79 80
33 32 33 37 38 34 26 21 20 21 23 24 24 24 24 24 25 26 26 26 26 26 26 26 26 25 25 26 27 27 27 27 27 27 28 29 30 32 33 33 34 35 36 39 49 65 81 89 90 86 83 84 88 93 97 98 97 96 93 88 85 84 85 85 85 87 87 85 84 84 86 88 90 91 90 89 87 84 82 82 81 80 79 79 79
32 35 39 39 33 25 20 20 23 24 24 24 24 25 26 26 26 27 26 26 26 26 26 26 26 26 26 27 27 27 27 27 27 27 28 29 30 32 34 34 35 35 36 37 40 50 67 83 92 93 89 86 86 88 92 96 99 100 99 96 91 88 86 85 85 87 88 87 85 84 83 83 85 85 85 85 84 82 81 81 80 80 79 78 79
37 41 40 32 23 20 21 24 25 24 24 25 25 26 26 26 26 25 25 25 26 26 26 26 26 27 27 28 27 27 27 27 27 27 28 29 31 33 34 36 36 36 36 37 38 42 54 71 86 94 96 93 90 87 88 91 97 101 103 102 97 92 89 88 87 87 88 88 87 86 84 82 82 82 82 82 81 79 79 79 78 77 76 75 75
43 40 32 23 20 22 24 25 25 25 25 26 26 26 26 25 25 25 25 25 25 25 26 26 27 27 27 28 28 28 27 26 27 28 29 30 31 33 35 37 38 37 37 37 37 38 45 59 75 88 95 97 96 93 89 87 90 94 100 104 102 98 93 91 90 91 89 87 88 89 88 85 83 81 80 79 78 76 76 76 74 73 73 72 72
41 32 24 20 22 25 26 26 26 26 27 27 26 25 25 25 25 26 25 25 25 26 26 26 26 27 28 29 28 27 27 27 27 28 30 31 32 34 36 38 39 38 37 37 36 37 41 51 65 79 88 94 97 98 95 90 87 87 92 98 101 100 97 94 94 95 93 90 89 90 91 90 88 85 82 81 79 76 75 74 74 72 72 72 72
Wind_Speed
24 24 23 24 24 24 24 24 24 24 24 24 25 25 26 26 27 27 28 28 29 29 30 30 30 31 31 32 33 35 36 37 39 41 42 44 45 47 48 49 50 50 51 51 52 52 52 52 52 52 53 54 54 55 55 56 56 56 57 57 57 58 59 60 62 62 62 62 63 66 67 67 66 67 67 67 68 68 67 67 68 69 69 70 70
23 23 23 23 23 23 23 23 24 24 25 25 26 26 26 27 27 28 28 28 29 29 29 30 31 32 33 34 36 37 38 40 41 43 44 46 47 47 48 48 49 49 50 51 51 51 51 51 52 52 53 54 55 55 55 56 56 56 56 56 56 56 57 58 59 60 60 59 60 62 64 64 63 64 65 66 66 67 66 66 67 67 67 67 67
22 22 22 22 22 23 23 24 24 25 25 26 26 26 27 27 27 28 28 28 28 29 30 31 32 34 35 37 38 39 41 42 43 45 45 46 46 46 47 47 48 48 49 50 50 51 51 51 52 52 53 54 54 55 55 55 55 54 54 54 54 54 55 55 56 57 57 57 57 59 60 61 60 60 62 63 64 65 65 65 66 66 66 66 66
22 22 22 22 22 23 24 24 25 25 25 25 26 26 26 27 27 28 28 29 30 31 32 33 34 36 37 39 40 41 42 43 44 44 45 45 45 45 46 47 48 49 50 50 50 50 50 51 51 52 52 52 52 52 52 52 52 51 50 50 50 51 51 51 52 53 54 54 54 55 56 57 57 57 59 60 60 61 62 62 63 63 64 64 64
21 22 22 22 23 23 24 25 25 25 25 25 26 26 26 27 28 28 29 30 31 33 34 35 36 38 39 41 42 43 43 44 44 44 44 44 44 45 46 47 48 49 49 49 49 49 49 49 50 50 50 50 50 49 49 49 48 47 47 47 47 48 48 48 49 49 50 51 51 51 53 54 55 55 56 57 57 58 58 58 59 59 60 61 62
22 22 23 23 24 24 24 25 25 25 25 25 26 27 27 28 29 30 31 32 33 34 35 37 38 39 40 41 42 43 43 43 43 43 44 44 45 45 46 47 48 49 48 48 48 47 48 48 47 48 47 47 47 46 46 45 45 45 45 45 45 45 45 46 46 47 48 48 48 49 50 51 52 52 53 54 55 56 56 56 55 56 57 58 58
22 23 23 23 24 24 24 24 25 25 26 26 27 28 29 30 31 32 33 34 34 35 36 37 38 39 39 40 41 42 43 43 43 44 44 44 44 45 46 47 47 47 46 46 46 46 46 46 45 45 45 45 44 44 43 43 43 43 43 43 43 43 44 44 45 45 45 45 46 47 48 49 50 50 51 51 52 54 55 55 54 54 54 55 56
23 23 23 23 24 24 24 25 25 26 27 27 28 29 30 31 32 33 33 34 34 35 36 36 37 38 39 40 41 42 43 44 44 44 44 43 43 44 45 46 46 45 44 44 44 43 43 43 43 42 42 42 42 42 41 41 41 41 41 41 42 42 42 43 43 43 43 43 44 45 46 47 48 48 49 50 50 51 52 54 54 53 53 53 54
23 23 24 24 24 25 25 26 26 27 28 28 29 30 30 31 31 32 33 34 34 35 36 37 38 39 40 41 42 43 44 45 45 44 44 43 43 43 44 44 43 42 42 41 40 40 40 40 40 40 40 40 40 40 40 40 40 40 40 40 40 41 41 41 42 42 42 42 43 44 44 45 46 47 47 48 49 49 50 51 52 52 52 51 52
24 24 24 24 25 25 26 26 27 28 28 28 29 29 30 31 31 32 33 34 35 36 37 37 38 40 41 42 42 43 44 45 45 44 42 41 41 42 42 41 40 39 38 38 38 38 38 38 38 39 39 38 38 38 38 39 38 38 39 39 39 40 40 40 40 40 41 41 42 43 43 44 45 46 46 47 48 48 49 50 51 51 50 49 49
25 25 25 25 25 26 26 27 27 27 28 28 28 29 30 31 31 32 34 34 35 36 37 38 39 40 41 42 42 43 43 44 44 43 39 37 38 39 40 38 37 36 35 35 36 36 37 37 37 37 37 37 37 37 37 37 37 37 37 38 39 39 39 39 39 39 40 40 41 42 43 43 44 45 46 46 46 47 48 49 50 50 49 49 48
25 25 25 25 26 26 26 27 27 27 28 28 29 29 30 31 32 33 34 35 35 37 38 39 40 40 41 41 41 41 41 41 42 41 38 34 34 36 37 36 35 34 34 34 34 35 36 36 36 36 36 36 35 35 36 35 35 35 36 37 37 38 38 39 39 40 40 40 41 41 42 43 43 44 45 45 45 46 47 47 48 48 48 48 49
25 26 26 26 26 27 27 27 27 28 28 28 29 30 30 31 32 33 34 35 36 37 38 39 39 39 39 39 39 38 38 38 38 38 37 33 32 33 34 34 33 33 33 33 33 34 34 34 35 35 34 34 34 33 33 33 33 34 34 35 36 37 37 38 39 40 41 41 41 42 42 43 44 44 44 44 45 46 46 46 46 47 47 47 48
26 27 27 27 27 27 27 27 27 28 28 29 29 30 31 32 33 34 35 36 37 38 38 38 38 37 36 36 36 35 35 34 34 35 34 32 31 32 33 33 32 32 32 32 32 32 32 32 33 33 32 32 32 32 32 32 32 33 33 34 35 35 36 36 37 38 39 40 41 41 42 42 43 43 43 44 45 45 46 47 47 47 47 47 48
27 27 28 28 27 27 27 27 27 28 29 29 30 30 31 32 33 35 36 37 37 37 37 36 35 34 34 33 33 33 32 32 32 32 32 31 31 32 33 33 32 31 31 31 30 30 30 30 31 31 31 30 31 31 31 31 31 31 32 33 33 33 34 35 36 37 38 39 40 40 41 42 43 44 44 45 46 46 47 48 48 48 49 48 48
27 27 27 27 27 26 27 27 28 28 29 29 30 31 32 33 34 36 36 36 36 35 34 33 33 32 31 31 31 30 30 30 30 31 30 30 30 32 32 32 31 30 30 29 29 29 29 29 29 30 30 30 30 30 29 29 29 30 31 31 32 32 33 34 35 36 36 38 39 40 40 41 42 43 44 46 47 48 48 48 48 49 49 49 47
26 26 26 26 26 26 27 27 28 29 29 29 30 31 33 34 35 35 35 34 33 32 31 31 31 30 29 29 29 29 29 29 30 30 29 29 29 30 31 30 30 29 29 28 28 28 28 28 29 30 30 29 29 29 29 29 29 30 31 31 31 31 32 32 33 34 35 36 37 38 38 38 39 39 40 42 44 46 47 47 47 47 47 48 47
25 26 25 26 26 26 27 27 28 28 29 30 31 32 33 34 33 33 32 31 31 30 30 29 29 28 28 28 27 28 28 28 29 29 29 27 28 29 29 29 28 28 27 27 28 28 29 29 29 28 28 28 28 29 29 30 30 31 32 32 32 31 31 32 32 32 32 33 34 34 35 36 36 36 37 38 40 42 44 45 46 46 46 46 46
25 25 25 25 26 26 26 27 27 29 30 31 32 33 32 32 31 30 29 29 29 28 28 27 27 27 27 27 27 27 28 28 28 28 27 26 25 26 27 27 27 27 28 28 28 29 28 28 27 27 27 28 28 29 31 32 32 32 34 34 33 32 32 32 32 32 31 31 31 32 33 33 34 35 36 37 39 40 42 44 45 45 45 45 45
24 24 24 24 25 25 26 27 28 30 31 31 32 31 30 29 28 28 27 27 27 26 26 26 26 26 26 26 27 27 27 27 27 27 26 25 24 24 25 26 27 28 28 28 28 28 28 27 27 27 27 29 29 30 32 33 33 34 35 35 34 34 33 32 32 32 32 31 31 31 32 32 33 34 36 37 38 39 41 42 43 44 45 44 44
23 23 23 24 25 26 27 28 29 30 31 31 30 29 28 27 27 26 26 25 25 25 25 25 25 25 25 26 26 26 26 26 26 25 25 24 23 23 24 25 26 27 28 27 27 27 27 27 27 28 29 30 31 31 32 33 33 34 34 35 35 34 34 33 33 33 33 33 32 32 33 33 33 34 35 35 37 38 39 40 41 42 43 43 43
22 22 23 24 25 26 28 29 30 30 29 29 28 27 26 25 25 25 24 24 24 24 24 24 25 25 25 25 25 25 25 24 24 24 24 24 24 23 24 24 25 25 26 26 26 26 27 27 28 29 30 31 31 31 32 32 32 33 33 34 34 34 34 34 34 33 33 33 32 32 32 32 32 32 33 34 35 36 37 37 38 39 40 40 41
22 22 24 25 26 28 29 29 29 29 27 26 25 25 24 24 24 23 23 23 23 23 24 24 24 24 24 24 24 24 24 23 23 23 23 23 24 23 22 22 22 23 24 24 25 26 27 28 29 30 31 31 31 32 31 31 32 32 32 33 33 34 34 33 33 33 32 32 32 31 32 32 32 32 32 33 33 34 35 35 35 36 37 37 38
23 24 25 27 28 28 29 28 27 26 25 24 23 23 23 23 23 22 23 23 23 23 23 23 23 23 23 23 23 23 23 22 22 22 23 23 22 21 21 20 21 22 24 25 26 27 28 29 30 31 31 31 31 31 31 31 31 32 32 33 33 33 33 32 32 31 31 31 31 31 31 31 32 32 32 32 32 33 33 33 33 34 35 35 35
24 26 27 28 28 27 26 25 24 24 23 23 22 22 22 22 22 22 22 22 23 23 23 23 23 22 22 22 22 22 22 22 22 22 22 22 21 21 21 21 22 23 25 26 28 29 29 30 31 31 31 31 31 31 31 32 32 32 32 33 32 32 32 31 31 31 30 30 30 30 30 30 31 31 32 32 33 34 34 33 33 33 34 33 33
25 26 27 26 26 25 24 23 22 22 21 21 21 21 21 21 21 22 22 22 22 22 22 22 22 22 22 22 22 22 22 22 23 23 22 22 22 22 22 23 24 25 27 28 29 30 30 31 31 31 32 32 32 31 31 31 31 32 32 33 33 32 32 31 31 30 30 29 29 29 29 30 30 31 31 32 33 34 35 34 33 32 32 32 31
25 25 25 24 23 23 22 21 21 21 20 20 20 20 21 21 21 21 21 22 22 22 22 22 21 21 21 21 21 22 22 22 23 23 22 22 23 23 24 25 26 27 28 29 30 31 31 31 32 32 32 32 32 32 31 30 31 31 32 33 33 33 32 32 31 31 30 29 29 28 29 29 29 30 30 31 32 33 34 34 33 32 31 31 30
24 23 23 22 21 21 20 20 20 19 20 20 20 20 20 21 21 21 21 21 21 21 21 21 21 21 21 21 21 22 22 22 22 23 23 24 24 25 26 27 27 28 29 29 31 31 31 32 32 32 32 32 32 32 32 31 31 31 32 32 33 33 32 32 31 31 31 30 29 29 28 28 28 29 29 29 30 31 32 32 31 30 30 30 29
22 21 21 20 19 19 19 19 19 19 19 19 19 20 20 20 20 20 20 20 21 21 20 20 21 21 20 20 21 22 23 23 22 23 24 25 26 26 27 28 28 28 29 29 30 31 31 31 31 31 31 31 31 31 31 31 31 31 32 32 32 32 32 32 31 30 30 29 29 28 28 27 27 27 27 27 28 28 28 28 28 28 28 29 29
20 19 19 19 18 18 18 18 18 18 19 19 19 19 19 19 19 19 19 20 20 20 20 20 20 20 20 20 20 21 23 23 24 24 25 26 26 27 28 28 28 28 28 29 29 30 30 30 30 31 31 30 30 30 30 29 29 29 30 31 32 32 31 31 30 29 29 28 27 27 27 26 25 25 25 25 24 24 25 26 27 28 28 29 29
19 18 18 18 18 18 18 18 18 18 18 18 18 18 18 18 18 18 19 19 19 19 19 19 19 20 20 21 21 22 23 24 25 25 26 27 27 28 28 29 29 29 29 29 29 30 30 30 30 31 30 30 30 29 29 28 28 28 27 28 30 31 31 30 30 29 28 27 26 26 26 25 24 23 23 22 21 22 24 25 26 27 28 28 29
17 17 17 17 17 17 17 17 17 16 16 16 16 17 17 17 17 17 18 18 18 18 18 18 19 20 20 21 22 23 24 25 25 26 27 27 28 28 29 30 30 30 30 30 30 30 31 31 30 30 30 29 29 29 28 28 27 27 26 26 27 29 30 30 29 28 27 26 25 24 24 23 22 21 20 20 21 21 23 24 24 26 26 27 28
16 16 16 16 16 16 16 16 15 15 15 15 15 15 15 15 16 16 16 17 17 17 18 18 19 20 21 21 22 23 24 25 26 26 27 27 28 28 29 30 31 31 31 31 30 31 31 31 31 30 30 29 28 28 27 27 27 26 26 26 26 27 28 29 28 27 26 25 25 23 22 21 20 18 18 19 21 21 21 22 23 25 26 26 27
16 16 15 15 16 15 15 14 14 14 14 14 14 14 14 14 14 14 15 15 16 17 18 18 19 20 21 22 22 23 25 26 27 27 28 28 28 28 28 29 31 31 31 31 30 30 31 31 31 31 30 29 28 27 26 26 26 26 26 26 26 27 27 28 27 26 25 24 23 22 21 19 18 17 17 18 19 19 20 21 22 24 25 25 26
15 15 15 15 15 14 13 13 13 12 13 12 12 13 13 13 14 14 15 16 17 17 19 19 20 21 22 22 23 24 26 27 28 28 29 28 28 28 28 28 29 30 31 31 31 30 30 31 31 30 30 28 27 27 26 25 26 26 26 26 26 26 27 27 26 25 24 23 22 20 19 18 16 16 17 17 18 18 19 20 21 23 24 25 26
15 15 14 14 13 13 12 12 12 12 12 12 12 13 13 14 15 15 16 17 18 20 21 22 23 23 23 23 23 24 26 27 28 29 29 29 28 28 27 27 27 28 30 31 31 30 30 31 31 30 29 28 27 26 26 25 25 26 26 26 25 26 26 26 26 24 23 22 21 19 17 16 16 16 16 16 17 18 19 19 20 22 24 25 26
14 14 13 13 12 12 12 12 11 12 12 12 13 14 15 15 16 17 18 19 20 21 22 23 25 26 26 25 25 24 26 27 28 29 30 30 29 28 28 27 27 27 28 29 30 29 29 30 31 30 29 28 27 26 26 26 25 26 26 25 25 25 25 25 25 23 22 21 20 18 16 16 16 16 16 15 16 17 18 19 20 21 23 25 26
14 13 13 12 12 12 12 12 12 12 13 14 15 15 16 17 18 19 19 20 21 21 22 23 24 26 27 27 27 27 27 28 29 30 31 31 30 30 28 27 27 26 26 27 28 28 28 28 29 30 29 28 27 26 25 25 25 25 25 25 24 25 25 25 24 23 22 20 19 17 16 15 16 17 16 15 16 16 17 19 20 21 22 24 26
14 13 13 13 13 13 13 13 13 14 15 15 16 17 17 18 19 19 19 20 21 21 22 23 24 25 26 26 27 27 28 28 30 31 31 32 32 32 30 29 28 27 26 27 28 28 27 27 28 28 28 28 27 26 25 25 25 25 25 24 23 24 25 25 24 23 21 20 19 17 16 16 16 17 17 16 16 17 18 19 21 22 24 25 27
13 13 13 13 13 13 14 14 14 15 16 16 17 17 18 18 18 19 19 20 20 21 21 22 24 25 25 26 26 27 27 28 29 30 31 32 32 33 32 31 29 28 27 27 28 28 27 26 27 27 27 27 27 26 25 25 25 24 24 24 23 23 24 24 23 22 21 20 18 17 17 17 17 17 17 17 18 18 19 20 21 23 25 27 28
14 14 14 14 14 14 14 15 15 16 17 17 17 17 17 17 18 18 18 18 19 19 20 21 23 24 25 26 27 27 27 27 28 29 30 30 31 32 32 32 31 29 28 28 28 28 27 26 26 27 27 27 27 26 25 25 25 24 23 23 22 22 23 24 23 22 20 20 19 18 17 18 18 18 17 18 18 19 20 22 23 24 26 28 30
14 14 14 14 14 15 15 15 16 16 16 17 17 17 16 16 16 16 16 17 17 18 19 20 22 24 25 27 27 28 28 28 28 29 29 30 30 30 31 31 31 30 29 28 28 28 27 26 26 26 26 26 26 26 26 25 25 24 23 23 22 22 22 23 23 22 21 20 19 18 18 18 19 19 19 19 19 20 22 23 24 26 27 29 31
15 15 15 15 15 15 16 16 16 16 16 16 16 15 15 14 15 15 15 16 17 18 19 20 22 24 25 27 28 29 29 29 30 30 30 30 30 30 30 31 30 30 29 28 28 28 26 26 25 26 26 25 26 26 26 26 26 25 24 23 22 21 21 22 22 22 21 20 19 19 19 19 20 20 20 21 21 22 23 25 26 27 29 30 31
15 15 15 15 16 16 16 16 15 15 15 14 14 13 13 13 14 14 15 16 18 19 20 21 22 24 25 27 29 30 30 31 31 31 31 31 31 30 30 30 30 30 29 29 29 28 27 26 25 25 25 25 25 25 26 26 26 25 25 23 22 21 21 22 22 22 21 21 19 19 20 20 21 22 22 23 23 24 24 26 27 29 30 31 32
15 15 16 16 16 15 15 15 15 14 13 13 12 12 12 13 14 15 16 17 18 20 21 23 24 25 26 28 29 30 31 32 32 32 32 32 31 31 31 31 30 30 29 29 29 29 28 26 25 25 24 24 25 25 25 26 26 26 25 24 23 22 22 22 21 22 22 21 20 20 20 20 21 22 23 24 25 26 26 27 29 30 31 32 34
16 16 16 15 15 15 15 14 13 12 12 11 11 12 12 13 15 16 17 18 20 21 23 24 26 27 28 29 30 31 32 32 32 32 32 32 32 32 31 31 30 30 29 29 29 29 28 27 26 25 24 24 24 25 25 25 26 26 26 25 24 23 23 22 21 21 22 22 21 21 21 21 22 23 24 25 26 27 28 29 30 32 33 34 35
16 16 15 15 15 14 14 13 12 11 11 11 11 12 13 14 16 17 18 20 21 23 24 25 27 28 29 30 31 32 32 32 32 32 32 32 31 31 31 31 30 29 29 29 29 29 29 28 27 26 25 25 24 24 24 25 25 26 26 25 25 24 24 23 22 22 22 22 22 22 22 22 22 23 25 26 28 29 29 30 31 32 34 35 36
16 15 15 15 14 14 13 12 12 11 11 11 12 13 14 15 16 18 20 21 23 24 26 27 28 30 31 31 32 33 33 33 33 32 32 32 31 31 30 30 29 29 28 28 28 29 29 28 28 28 27 26 25 24 24 24 25 25 25 25 25 25 25 24 23 23 22 22 22 22 23 23 23 24 25 27 29 30 30 31 32 33 34 35 36
16 16 15 15 14 13 13 12 12 11 11 12 12 13 14 16 17 19 20 22 23 25 27 28 30 31 32 33 33 33 33 33 33 32 32 31 31 30 30 29 29 28 28 27 27 28 28 28 28 28 28 27 27 26 25 24 24 24 24 24 24 25 25 25 24 24 23 23 22 22 23 23 23 24 26 27 29 30 31 32 33 34 35 36 36
16 16 15 15 14 13 13 12 12 12 12 12 13 14 15 16 18 19 21 23 24 26 28 29 31 32 33 34 34 34 34 33 33 32 31 31 30 30 29 28 28 28 27 27 27 27 27 27 28 28 28 27 27 27 27 25 24 24 24 23 24 24 25 25 25 25 25 24 23 22 22 23 24 24 25 27 28 30 31 32 33 34 35 35 36
16 16 15 15 14 14 13 12 12 12 12 13 13 14 15 16 18 20 22 23 25 27 29 30 32 33 34 35 35 35 34 33 32 32 31 30 30 29 28 28 27 27 27 26 26 26 26 27 27 27 27 27 27 27 27 27 26 24 24 23 23 24 24 24 25 25 26 25 24 23 23 23 24 24 25 26 27 29 30 31 32 32 33 34 35
Wind_Direction
236 238 240 243 244 246 249 251 253 255 257 259 261 263 264 266 267 269 270 271 271 272 273 273 273 274 275 275 276 278 279 281 283 285 286 288 289 290 291 292 292 292 292 291 291 291 292 292 292 292 291 291 290 290 290 290 289 289 289 288 288 288 287 287 287 286 286 286 286 286 286 286 286 286 286 286 285 285 285 284 284 283 282 281 280
237 240 241 243 245 247 249 251 254 256 258 260 262 263 265 266 268 269 270 271 272 272 273 274 274 275 276 277 279 280 282 284 285 287 288 290 290 291 291 292 292 291 291 291 291 292 292 292 292 292 291 291 291 291 290 290 290 289 289 289 289 288 288 287 287 287 286 286 286 286 286 287 287 287 288 287 287 287 287 286 286 286 285 284 284
238 240 242 244 246 248 250 252 254 256 258 260 262 263 265 266 268 269 270 271 273 273 274 276 277 278 279 280 282 283 285 286 288 289 290 291 291 292 292 292 291 291 292 292 293 293 293 293 292 292 292 292 291 291 291 290 290 290 290 290 290 290 290 290 289 289 288 288 288 288 288 288 289 289 289 289 289 289 289 289 289 289 289 288 288
239 242 244 246 248 250 252 254 255 257 259 261 262 264 265 266 268 269 271 273 274 276 277 278 280 281 282 284 285 286 287 289 290 291 292 292 292 292 292 292 292 293 293 294 294 294 293 293 293 292 292 292 292 292 291 291 292 292 292 292 292 292 292 292 292 292 291 291 291 291 291 291 291 291 291 290 290 291 292 292 292 292 292 292 291
242 244 246 248 250 251 253 255 257 259 261 262 264 265 266 267 269 271 272 274 276 277 279 281 282 283 285 286 288 289 290 291 292 293 293 294 294 294 294 294 294 294 294 294 294 294 293 293 293 293 293 293 293 293 293 294 294 294 294 294 294 294 294 294 294 294 294 294 294 294 294 294 294 294 294 294 293 294 294 294 294 294 294 294 294
244 245 247 249 250 252 254 257 259 260 262 264 265 267 268 270 271 272 274 276 277 279 281 283 284 286 288 289 290 291 292 293 294 295 295 295 295 295 295 295 295 295 295 295 294 294 294 294 294 294 294 295 295 295 296 296 297 297 297 297 297 297 296 296 296 296 297 297 297 297 296 296 296 296 297 297 297 296 295 295 296 297 297 296 296
245 247 249 251 253 255 257 259 260 262 263 265 266 268 269 271 272 274 275 277 279 281 283 286 288 289 291 292 292 293 294 295 296 296 297 297 296 295 295 295 295 295 295 295 295 295 296 296 296 296 297 297 297 298 298 299 299 298 298 299 298 298 298 298 298 299 299 300 299 299 298 298 298 299 299 299 299 299 299 298 298 298 298 298 298
247 249 251 253 254 256 258 259 261 262 263 264 266 267 269 271 273 275 278 280 283 285 288 289 291 292 293 294 295 296 296 297 297 297 297 296 296 295 295 295 296 296 296 297 297 297 297 297 298 298 298 298 299 299 299 300 300 300 300 300 300 299 299 300 300 301 301 301 301 301 301 300 300 300 301 300 300 301 301 301 300 299 300 301 301
250 251 252 253 254 256 257 259 260 261 263 265 267 269 272 274 277 280 283 285 288 290 291 293 294 294 295 296 297 297 297 297 297 297 296 296 296 296 295 296 297 297 298 298 298 298 298 299 299 299 299 300 300 300 300 300 301 301 301 301 301 300 301 301 302 303 303 303 302 302 302 302 302 302 302 302 303 303 303 303 304 304 303 304 304
250 251 252 254 255 256 257 259 261 263 266 268 271 274 277 280 282 285 287 289 291 293 294 295 296 296 297 297 297 297 296 296 295 295 296 296 296 295 296 297 298 298 299 299 299 299 299 299 300 300 300 300 300 301 301 301 302 302 302 302 302 302 303 304 304 304 304 303 303 303 303 303 304 304 305 306 306 307 307 306 306 307 307 306 305
250 252 253 255 257 258 260 263 265 268 271 274 276 279 281 283 286 288 289 291 293 293 294 296 296 297 297 296 296 295 295 295 294 294 295 296 296 296 296 298 299 299 300 300 300 300 300 300 300 300 300 301 301 301 302 302 303 304 304 304 304 305 305 305 305 304 304 305 305 306 306 306 307 307 308 308 309 309 309 309 309 310 310 308 306
251 254 256 258 260 262 265 267 270 273 275 277 280 282 284 286 288 289 291 292 293 294 295 295 296 296 295 295 295 294 294 295 295 295 296 297 297 297 298 299 299 300 300 300 300 300 300 300 300 300 300 301 301 302 302 303 304 305 305 305 306 306 307 307 306 306 306 307 307 308 308 308 308 309 310 310 310 310 310 310 311 311 310 309 308
254 256 259 260 263 265 267 270 273 275 277 280 282 284 285 287 289 290 291 292 293 294 295 295 295 294 294 294 294 294 295 295 296 296 297 298 298 298 298 298 299 299 300 300 300 300 300 300 300 300 301 301 302 302 303 305 306 306 306 306 307 308 308 309 309 309 309 309 309 309 310 310 310 311 311 311 310 310 310 310 311 311 310 310 310
255 257 260 262 264 266 268 271 274 276 279 281 283 285 286 288 289 291 292 293 294 294 294 294 293 293 293 293 294 295 295 296 297 298 299 299 298 298 298 298 299 299 299 300 300 299 300 300 300 301 301 302 303 304 304 306 306 307 307 307 308 308 308 309 309 309 309 310 310 310 311 311 310 310 311 311 310 310 311 311 312 312 312 312 313
256 258 261 263 265 268 270 273 275 277 280 282 283 285 287 289 290 292 292 293 293 293 293 293 293 293 293 294 294 295 296 297 297 298 300 300 299 298 299 300 300 300 300 300 300 299 300 300 300 301 302 303 303 304 305 306 307 308 308 308 309 309 309 309 309 309 310 310 310 310 311 311 311 312 313 313 313 313 313 314 315 314 315 315 316
257 259 261 263 266 269 272 274 276 278 280 282 283 286 288 289 291 292 292 292 292 292 292 293 293 294 294 294 295 296 296 297 297 298 299 300 299 298 299 300 300 300 300 300 300 300 300 301 301 302 302 303 303 304 305 307 308 309 309 309 310 310 310 311 311 311 312 312 312 312 313 314 315 316 317 316 316 316 316 317 317 317 317 317 317
257 259 261 264 267 269 271 273 275 277 279 282 284 286 288 289 290 291 291 292 292 292 293 293 294 294 295 295 295 295 296 296 296 297 299 299 298 298 299 300 300 300 300 300 301 301 301 301 301 302 302 303 304 305 306 308 309 309 309 309 310 310 311 312 313 313 314 313 314 314 315 315 316 317 316 316 315 316 316 316 316 317 317 317 316
258 259 261 263 266 268 270 272 275 277 280 282 284 286 288 289 290 291 291 291 292 292 293 293 294 294 294 295 295 295 295 296 296 297 298 299 299 298 299 299 299 300 300 300 300 300 300 301 301 302 303 304 305 306 307 307 308 308 307 307 308 309 311 312 313 313 314 313 314 314 313 314 314 314 314 313 313 314 314 315 316 317 317 317 316
257 258 260 262 265 267 270 273 275 278 281 284 286 288 289 290 290 290 290 291 291 292 292 293 293 294 294 294 294 295 295 296 296 297 298 298 298 298 298 298 298 299 300 300 300 300 300 300 301 302 304 305 306 306 306 307 308 307 306 306 308 309 311 311 312 312 312 311 310 311 312 313 315 315 315 315 315 315 315 316 317 317 318 318 317
256 258 260 262 265 268 271 274 278 281 284 287 289 290 290 290 290 289 289 290 290 291 291 292 293 293 293 294 294 295 296 296 296 297 297 298 297 296 297 298 298 299 299 299 300 300 300 301 302 303 304 305 306 306 306 307 308 307 307 308 309 310 310 311 311 311 311 311 312 313 315 316 317 317 317 317 316 316 316 317 317 318 318 319 319
255 258 261 264 267 271 274 278 282 285 287 289 289 290 289 288 288 288 288 289 289 290 291 292 292 293 293 294 295 295 296 297 297 297 297 297 297 296 297 297 298 298 298 299 299 300 301 302 303 304 304 305 306 306 306 307 308 308 309 309 309 309 310 311 312 312 313 315 316 317 318 318 319 318 317 317 317 316 317 317 318 318 318 319 320
257 260 263 267 271 275 279 282 285 287 288 288 288 287 287 286 287 287 287 288 289 290 291 291 292 293 294 295 296 296 297 297 297 297 297 297 298 298 298 298 297 297 297 298 299 300 300 302 303 304 305 305 306 306 307 308 308 308 308 308 309 310 311 312 314 315 317 318 318 318 318 318 318 318 317 317 317 316 317 317 318 318 319 320 321
261 264 268 272 276 280 282 284 285 286 286 285 285 285 285 285 286 286 287 288 289 290 291 292 293 294 295 296 296 296 296 296 295 295 296 297 298 299 298 297 296 295 295 296 297 298 300 302 303 304 305 305 306 307 308 308 308 308 308 309 309 310 312 314 315 316 317 317 317 317 317 317 318 318 318 318 317 316 317 318 320 320 320 321 322
265 269 273 276 279 281 282 283 283 283 283 283 283 284 284 285 285 286 287 288 289 291 292 293 294 295 296 295 295 295 295 294 294 295 297 297 297 297 296 295 294 294 294 295 297 299 301 303 304 305 306 307 307 308 308 308 309 309 309 310 310 311 312 313 315 316 316 316 316 317 317 317 318 318 318 318 318 318 319 321 323 323 323 324 324
268 271 274 277 278 280 280 281 281 281 281 282 282 283 283 284 285 287 288 289 291 292 293 294 294 295 295 295 295 294 294 294 295 297 297 297 297 297 297 296 296 296 298 299 300 302 303 305 306 306 307 307 308 309 309 310 311 311 310 310 310 310 311 313 315 316 316 316 316 316 316 317 318 318 319 320 319 320 322 324 326 326 325 325 326
270 272 275 277 278 279 280 280 280 280 280 281 282 283 283 285 286 287 289 290 291 292 294 294 295 295 295 295 294 293 293 295 297 298 298 298 298 299 299 300 300 301 302 303 303 304 305 306 306 307 307 308 309 310 310 311 311 310 310 310 310 310 312 314 316 316 316 316 316 316 317 317 318 319 320 320 321 322 323 325 327 327 326 326 328
271 273 276 277 278 278 278 278 279 279 280 281 282 283 284 286 287 288 290 291 292 294 295 295 295 295 294 294 293 293 294 297 297 298 298 298 299 300 301 302 302 303 304 305 305 306 306 307 307 308 309 309 309 310 310 310 310 310 310 310 310 311 313 315 316 317 317 317 317 317 318 318 319 320 321 321 322 323 324 326 329 329 329 329 330
273 275 276 276 276 276 276 277 278 279 280 281 282 284 285 286 287 289 290 292 293 294 295 295 295 294 293 293 293 294 296 297 298 298 299 300 301 302 302 303 304 305 305 306 306 306 307 307 307 308 308 308 308 309 309 310 311 311 311 310 311 312 314 316 317 318 318 318 318 318 318 319 319 320 321 322 324 325 326 329 331 333 334 334 334
273 273 273 272 273 274 274 276 277 278 279 280 282 283 284 286 288 289 291 292 293 293 294 294 293 293 292 293 294 296 297 298 299 299 300 301 302 303 303 304 305 305 306 306 305 304 305 305 306 306 306 306 306 307 308 309 310 310 310 310 310 311 313 315 317 317 317 317 317 317 317 318 319 320 322 325 327 328 330 332 334 336 338 338 338
270 269 269 269 270 271 273 274 276 277 278 279 281 282 284 286 288 290 291 292 292 293 293 293 292 292 292 293 294 296 298 299 300 301 301 302 302 303 303 304 304 304 304 304 303 303 303 304 304 304 304 304 305 305 305 305 305 306 307 308 308 310 312 314 315 316 316 316 316 316 315 317 319 322 324 327 330 332 333 335 337 338 339 339 339
265 265 266 267 268 270 272 273 275 276 277 279 281 283 285 287 289 291 292 293 294 294 294 294 293 293 294 295 297 298 299 300 301 302 302 303 303 303 303 303 303 303 303 303 303 303 303 303 303 303 304 304 303 303 302 302 302 302 304 305 306 308 310 312 313 314 315 315 315 315 315 318 322 325 327 330 334 335 335 337 338 340 342 342 342
261 262 264 265 267 269 270 272 273 275 277 280 282 284 287 289 290 291 292 293 293 293 293 293 293 294 295 296 298 299 300 300 300 301 301 302 302 302 302 302 302 302 303 303 303 303 303 303 303 303 304 303 302 302 301 300 301 302 303 304 305 307 309 311 313 313 314 314 314 315 316 318 323 327 329 332 335 337 338 340 342 343 346 347 346
259 261 262 264 266 267 268 270 272 275 277 280 282 285 287 289 290 292 293 293 293 292 292 291 291 292 293 294 296 297 297 297 298 298 299 299 300 301 301 301 301 302 302 302 302 302 302 303 303 304 303 302 302 301 301 301 302 302 304 304 305 306 308 310 312 313 314 314 315 315 317 319 324 328 330 332 335 338 340 342 344 345 347 348 348
258 260 261 263 264 265 267 269 271 273 276 279 281 283 286 287 288 289 289 289 288 288 288 288 289 290 291 293 295 295 295 295 296 296 297 298 299 300 300 301 301 301 301 301 301 301 301 302 302 302 302 302 302 303 303 303 303 304 304 305 306 307 309 311 312 313 313 313 314 316 317 320 323 326 329 331 334 338 340 342 344 345 346 348 349
257 259 260 261 261 262 264 265 267 269 273 276 279 281 283 285 287 287 288 288 288 287 287 287 287 288 290 292 294 295 295 296 297 297 298 298 299 299 300 300 300 300 300 300 300 301 301 301 301 301 302 303 304 305 305 305 305 305 305 306 306 308 309 310 311 312 312 312 313 315 316 317 319 323 327 331 333 336 339 341 343 343 345 347 349
257 258 258 257 257 258 259 261 263 265 269 272 275 278 281 284 286 288 289 291 292 293 294 295 295 295 295 295 296 296 297 298 298 298 299 299 300 300 300 299 299 299 300 300 301 301 301 301 301 302 303 304 305 306 307 307 307 306 306 306 306 307 308 309 309 310 310 311 312 313 313 313 316 320 325 329 331 333 336 339 341 343 344 346 349
255 256 255 254 254 255 257 260 263 266 269 272 275 279 283 285 288 289 291 292 294 296 298 299 300 300 300 301 301 300 300 300 299 299 300 300 300 301 301 300 300 300 299 299 300 301 302 302 302 302 303 304 306 307 307 307 307 307 306 306 307 307 308 308 308 308 309 309 310 310 310 310 312 317 322 325 326 329 332 335 337 340 342 344 347
252 251 251 251 253 255 259 262 265 268 272 276 279 283 286 288 290 292 294 296 297 298 298 299 300 301 303 304 305 305 305 303 302 302 302 302 301 301 301 301 300 300 299 299 299 300 301 302 302 302 303 304 305 306 306 307 307 307 307 307 306 306 307 308 307 307 307 308 308 308 306 307 310 314 317 319 321 324 328 330 332 335 337 340 343
247 246 246 249 253 256 259 263 267 271 274 278 282 285 287 289 292 294 295 297 298 299 300 301 301 302 304 305 305 306 307 305 304 303 303 303 302 302 302 301 300 300 300 299 299 300 302 302 302 301 302 303 303 304 305 306 307 307 307 307 306 305 305 306 306 305 306 306 306 304 302 303 307 310 312 314 316 319 322 325 327 329 332 335 338
242 242 244 248 252 255 260 264 268 273 277 280 283 286 288 290 293 294 296 298 300 302 303 304 304 305 307 307 307 308 307 306 305 304 304 303 302 302 302 301 300 300 300 300 300 301 302 303 302 301 301 301 302 304 305 306 307 307 307 307 305 304 304 304 304 303 303 303 302 301 299 301 304 307 308 310 312 315 317 320 322 325 328 331 333
240 241 245 250 254 258 263 267 271 275 279 282 284 287 289 291 293 296 298 301 303 305 307 308 308 309 309 309 309 309 309 307 306 305 304 302 301 300 300 299 299 299 299 299 299 300 302 303 301 300 300 301 302 304 305 306 306 306 308 308 306 304 302 302 302 302 302 301 300 297 297 298 301 303 304 305 307 310 313 315 318 321 324 327 329
241 245 249 253 257 262 266 270 273 276 279 282 285 288 290 293 296 299 302 305 307 310 311 311 311 311 311 310 311 311 311 309 307 306 304 302 301 300 298 297 297 297 296 296 297 298 300 301 300 299 299 300 301 303 304 304 305 306 307 309 308 305 302 301 301 301 300 299 297 295 294 296 298 300 300 301 303 306 308 310 314 317 320 323 326
244 248 253 257 260 264 268 271 274 277 279 283 285 288 291 296 299 303 307 309 311 313 314 313 313 313 312 312 312 313 312 311 309 308 306 304 302 301 299 297 296 295 294 293 293 294 297 298 299 299 299 299 300 301 302 303 304 305 306 308 309 307 303 301 300 300 298 297 295 293 293 294 295 297 298 299 300 303 305 307 310 313 316 320 323
246 251 255 259 262 265 268 271 274 276 278 282 285 289 294 299 303 307 311 312 313 315 316 315 315 316 315 314 314 314 313 312 311 310 308 306 304 302 300 298 296 294 292 291 290 291 294 295 297 298 299 298 298 299 300 302 303 305 306 307 309 309 306 303 301 299 297 295 293 291 290 291 293 295 296 297 297 299 302 304 307 310 313 316 320
249 253 257 260 263 265 268 270 272 274 278 282 286 291 297 302 306 309 311 313 316 317 318 318 319 319 318 317 315 315 314 314 313 311 309 307 305 303 301 299 297 295 292 290 289 289 290 292 294 296 297 297 297 298 299 301 302 304 305 306 308 310 309 307 303 300 297 295 293 290 288 288 290 292 293 294 295 297 299 302 305 307 311 314 317
252 255 258 260 263 265 267 268 269 272 277 281 286 292 298 303 307 310 313 316 318 319 320 320 320 320 320 319 318 316 315 314 313 312 310 307 306 304 302 300 298 295 293 290 288 287 288 289 290 293 294 295 296 297 297 299 301 302 304 305 307 309 310 310 307 304 299 296 295 292 288 287 288 290 292 293 294 295 298 300 303 306 309 312 315
253 256 258 261 263 264 263 264 265 268 272 278 285 293 299 304 309 312 315 317 319 320 321 322 321 321 321 321 319 318 317 315 314 312 310 308 306 304 302 301 299 296 294 291 289 288 287 287 287 289 291 293 295 296 296 297 298 300 302 304 306 307 309 310 310 308 303 298 296 294 291 288 287 288 290 291 293 294 297 299 301 304 307 310 313
254 257 259 260 260 258 257 258 260 264 271 279 287 295 301 306 310 313 315 317 319 320 321 322 322 322 322 322 321 319 318 316 314 312 310 309 307 305 303 302 300 298 295 292 290 288 287 286 286 287 288 289 292 294 295 296 297 298 300 303 304 305 306 309 310 310 307 303 299 296 294 292 290 289 289 290 291 293 296 298 301 303 305 308 311
256 257 258 257 254 253 252 254 258 265 274 283 291 297 303 307 311 313 315 317 319 320 320 322 323 323 323 323 322 321 319 317 315 313 311 309 308 306 305 303 301 299 296 294 290 288 287 286 286 286 286 287 289 291 293 295 296 297 298 300 302 303 304 306 308 309 309 307 305 301 298 296 294 292 291 291 292 293 296 298 300 303 305 307 310
255 255 253 250 248 248 249 253 260 270 279 287 293 299 304 308 311 314 316 318 319 320 321 322 323 324 324 324 323 322 320 318 316 314 312 310 309 307 305 304 302 300 298 295 291 289 287 285 285 285 286 286 287 288 289 291 293 295 296 298 299 300 301 303 305 307 308 309 309 308 304 301 298 296 296 295 295 296 298 299 301 303 305 307 310
254 252 248 246 245 246 249 256 266 274 282 287 293 298 303 309 313 315 317 319 320 320 321 322 324 325 325 324 324 323 321 319 317 314 312 311 309 308 306 305 303 302 299 296 293 290 287 286 285 285 285 286 286 286 287 289 290 293 295 296 296 297 299 300 301 303 305 307 310 310 309 306 304 302 301 301 300 300 301 302 303 305 307 309 311